Year,Month,Day,Hour,Minute,Value (Times are PST for temperature in C)
2009,07,30,00,00,23.50
2009,07,30,00,01,23.40
2009,07,30,00,02,23.30
2009,07,30,00,03,23.20
2009,07,30,00,04,23.10
2009,07,30,00,05,22.90
2009,07,30,00,06,22.80
2009,07,30,00,07,22.80
2009,07,30,00,08,22.70
2009,07,30,00,09,22.60
2009,07,30,00,10,22.50
2009,07,30,00,11,22.50
2009,07,30,00,12,22.40
2009,07,30,00,13,22.30
2009,07,30,00,14,22.30
2009,07,30,00,15,22.20
2009,07,30,00,16,22.20
2009,07,30,00,17,22.10
2009,07,30,00,18,22.10
2009,07,30,00,19,22.00
2009,07,30,00,20,22.00
2009,07,30,00,21,21.90
2009,07,30,00,22,21.90
2009,07,30,00,23,21.80
2009,07,30,00,24,21.80
2009,07,30,00,25,21.80
2009,07,30,00,26,21.70
2009,07,30,00,27,21.70
2009,07,30,00,28,21.60
2009,07,30,00,29,21.60
2009,07,30,00,30,21.50
2009,07,30,00,31,21.50
2009,07,30,00,32,21.40
2009,07,30,00,33,21.40
2009,07,30,00,34,21.40
2009,07,30,00,35,21.30
2009,07,30,00,36,21.30
2009,07,30,00,37,21.30
2009,07,30,00,38,21.30
2009,07,30,00,39,21.30
2009,07,30,00,40,21.30
2009,07,30,00,41,21.30
2009,07,30,00,42,21.30
2009,07,30,00,43,21.30
2009,07,30,00,44,21.30
2009,07,30,00,45,21.30
2009,07,30,00,46,21.30
2009,07,30,00,47,21.30
2009,07,30,00,48,21.30
2009,07,30,00,49,21.30
2009,07,30,00,50,21.30
2009,07,30,00,51,21.30
2009,07,30,00,52,21.30
2009,07,30,00,53,21.30
2009,07,30,00,54,21.30
2009,07,30,00,55,21.30
2009,07,30,00,56,21.30
2009,07,30,00,57,21.30
2009,07,30,00,58,21.30
2009,07,30,00,59,21.30
2009,07,30,01,00,21.30
2009,07,30,01,01,21.30
2009,07,30,01,02,21.30
2009,07,30,01,03,21.30
2009,07,30,01,04,21.30
2009,07,30,01,05,21.30
2009,07,30,01,06,21.30
2009,07,30,01,07,21.30
2009,07,30,01,08,21.30
2009,07,30,01,09,21.30
2009,07,30,01,10,21.30
2009,07,30,01,11,21.30
2009,07,30,01,12,21.30
2009,07,30,01,13,21.30
2009,07,30,01,14,21.30
2009,07,30,01,15,21.20
2009,07,30,01,16,21.20
2009,07,30,01,17,21.20
2009,07,30,01,18,21.10
2009,07,30,01,19,21.10
2009,07,30,01,20,21.10
2009,07,30,01,21,21.10
2009,07,30,01,22,21.10
2009,07,30,01,23,21.00
2009,07,30,01,24,21.00
2009,07,30,01,25,20.90
2009,07,30,01,26,20.90
2009,07,30,01,27,20.90
2009,07,30,01,28,20.90
2009,07,30,01,29,20.90
2009,07,30,01,30,20.80
2009,07,30,01,31,20.80
2009,07,30,01,32,20.80
2009,07,30,01,33,20.80
2009,07,30,01,34,20.80
2009,07,30,01,35,20.80
2009,07,30,01,36,20.80
2009,07,30,01,37,20.80
2009,07,30,01,38,20.80
2009,07,30,01,39,20.80
2009,07,30,01,40,20.80
2009,07,30,01,41,20.70
2009,07,30,01,42,20.70
2009,07,30,01,43,20.70
2009,07,30,01,44,20.70
2009,07,30,01,45,20.70
2009,07,30,01,46,20.70
2009,07,30,01,47,20.70
2009,07,30,01,48,20.60
2009,07,30,01,49,20.60
2009,07,30,01,50,20.50
2009,07,30,01,51,20.50
2009,07,30,01,52,20.40
2009,07,30,01,53,20.30
2009,07,30,01,54,20.30
2009,07,30,01,55,20.20
2009,07,30,01,56,20.10
2009,07,30,01,57,20.00
2009,07,30,01,58,20.00
2009,07,30,01,59,19.90
2009,07,30,02,00,19.90
2009,07,30,02,01,19.80
2009,07,30,02,02,19.80
2009,07,30,02,03,19.80
2009,07,30,02,04,19.80
2009,07,30,02,05,19.80
2009,07,30,02,06,19.80
2009,07,30,02,07,19.80
2009,07,30,02,08,19.70
2009,07,30,02,09,19.70
2009,07,30,02,10,19.70
2009,07,30,02,11,19.60
2009,07,30,02,12,19.50
2009,07,30,02,13,19.40
2009,07,30,02,14,19.40
2009,07,30,02,15,19.30
2009,07,30,02,16,19.20
2009,07,30,02,17,19.20
2009,07,30,02,18,19.10
2009,07,30,02,19,19.00
2009,07,30,02,20,18.90
2009,07,30,02,21,18.90
2009,07,30,02,22,18.80
2009,07,30,02,23,18.80
2009,07,30,02,24,18.70
2009,07,30,02,25,18.70
2009,07,30,02,26,18.70
2009,07,30,02,27,18.70
2009,07,30,02,28,18.70
2009,07,30,02,29,18.70
2009,07,30,02,30,18.70
2009,07,30,02,31,18.70
2009,07,30,02,32,18.70
2009,07,30,02,33,18.70
2009,07,30,02,34,18.70
2009,07,30,02,35,18.70
2009,07,30,02,36,18.70
2009,07,30,02,37,18.70
2009,07,30,02,38,18.70
2009,07,30,02,39,18.70
2009,07,30,02,40,18.70
2009,07,30,02,41,18.70
2009,07,30,02,42,18.70
2009,07,30,02,43,18.80
2009,07,30,02,44,18.80
2009,07,30,02,45,18.80
2009,07,30,02,46,18.80
2009,07,30,02,47,18.80
2009,07,30,02,48,18.80
2009,07,30,02,49,18.80
2009,07,30,02,50,18.70
2009,07,30,02,51,18.70
2009,07,30,02,52,18.70
2009,07,30,02,53,18.70
2009,07,30,02,54,18.70
2009,07,30,02,55,18.60
2009,07,30,02,56,18.60
2009,07,30,02,57,18.60
2009,07,30,02,58,18.60
2009,07,30,02,59,18.60
2009,07,30,03,00,18.60
2009,07,30,03,01,18.50
2009,07,30,03,02,18.50
2009,07,30,03,03,18.50
2009,07,30,03,04,18.50
2009,07,30,03,05,18.50
2009,07,30,03,06,18.40
2009,07,30,03,07,18.40
2009,07,30,03,08,18.40
2009,07,30,03,09,18.40
2009,07,30,03,10,18.40
2009,07,30,03,11,18.40
2009,07,30,03,12,18.40
2009,07,30,03,13,18.40
2009,07,30,03,14,18.40
2009,07,30,03,15,18.40
2009,07,30,03,16,18.40
2009,07,30,03,17,18.30
2009,07,30,03,18,18.30
2009,07,30,03,19,18.30
2009,07,30,03,20,18.30
2009,07,30,03,21,18.30
2009,07,30,03,22,18.30
2009,07,30,03,23,18.30
2009,07,30,03,24,18.20
2009,07,30,03,25,18.20
2009,07,30,03,26,18.20
2009,07,30,03,27,18.10
2009,07,30,03,28,18.10
2009,07,30,03,29,18.10
2009,07,30,03,30,18.10
2009,07,30,03,31,18.00
2009,07,30,03,32,18.00
2009,07,30,03,33,18.00
2009,07,30,03,34,18.00
2009,07,30,03,35,18.00
2009,07,30,03,36,18.00
2009,07,30,03,37,18.00
2009,07,30,03,38,18.00
2009,07,30,03,39,18.00
2009,07,30,03,40,18.00
2009,07,30,03,41,18.00
2009,07,30,03,42,18.10
2009,07,30,03,43,18.10
2009,07,30,03,44,18.10
2009,07,30,03,45,18.10
2009,07,30,03,46,18.10
2009,07,30,03,47,18.10
2009,07,30,03,48,18.10
2009,07,30,03,49,18.10
2009,07,30,03,50,18.20
2009,07,30,03,51,18.20
2009,07,30,03,52,18.20
2009,07,30,03,53,18.20
2009,07,30,03,54,18.20
2009,07,30,03,55,18.20
2009,07,30,03,56,18.20
2009,07,30,03,57,18.20
2009,07,30,03,58,18.20
2009,07,30,03,59,18.20
2009,07,30,04,00,18.20
2009,07,30,04,01,18.20
2009,07,30,04,02,18.10
2009,07,30,04,03,18.10
2009,07,30,04,05,18.10
2009,07,30,04,06,18.00
2009,07,30,04,07,18.00
2009,07,30,04,08,17.90
2009,07,30,04,09,17.90
2009,07,30,04,10,17.90
2009,07,30,04,11,17.90
2009,07,30,04,12,17.80
2009,07,30,04,13,17.80
2009,07,30,04,14,17.80
2009,07,30,04,15,17.70
2009,07,30,04,16,17.70
2009,07,30,04,17,17.70
2009,07,30,04,18,17.70
2009,07,30,04,19,17.70
2009,07,30,04,20,17.70
2009,07,30,04,21,17.70
2009,07,30,04,22,17.70
2009,07,30,04,23,17.60
2009,07,30,04,24,17.60
2009,07,30,04,25,17.60
2009,07,30,04,26,17.60
2009,07,30,04,27,17.60
2009,07,30,04,28,17.60
2009,07,30,04,29,17.60
2009,07,30,04,30,17.50
2009,07,30,04,31,17.50
2009,07,30,04,32,17.50
2009,07,30,04,33,17.50
2009,07,30,04,34,17.40
2009,07,30,04,35,17.40
2009,07,30,04,36,17.40
2009,07,30,04,37,17.40
2009,07,30,04,38,17.40
2009,07,30,04,39,17.40
2009,07,30,04,40,17.40
2009,07,30,04,41,17.40
2009,07,30,04,42,17.40
2009,07,30,04,43,17.40
2009,07,30,04,44,17.40
2009,07,30,04,45,17.30
2009,07,30,04,46,17.30
2009,07,30,04,47,17.30
2009,07,30,04,48,17.30
2009,07,30,04,49,17.30
2009,07,30,04,50,17.30
2009,07,30,04,51,17.30
2009,07,30,04,52,17.30
2009,07,30,04,53,17.30
2009,07,30,04,54,17.30
2009,07,30,04,55,17.30
2009,07,30,04,56,17.30
2009,07,30,04,57,17.30
2009,07,30,04,58,17.30
2009,07,30,04,59,17.30
2009,07,30,05,00,17.30
2009,07,30,05,01,17.30
2009,07,30,05,02,17.30
2009,07,30,05,03,17.20
2009,07,30,05,04,17.20
2009,07,30,05,05,17.20
2009,07,30,05,06,17.20
2009,07,30,05,07,17.30
2009,07,30,05,08,17.20
2009,07,30,05,09,17.30
2009,07,30,05,10,17.20
2009,07,30,05,11,17.30
2009,07,30,05,12,17.30
2009,07,30,05,13,17.30
2009,07,30,05,14,17.30
2009,07,30,05,15,17.30
2009,07,30,05,16,17.30
2009,07,30,05,17,17.30
2009,07,30,05,18,17.30
2009,07,30,05,19,17.30
2009,07,30,05,20,17.30
2009,07,30,05,21,17.30
2009,07,30,05,22,17.30
2009,07,30,05,23,17.30
2009,07,30,05,24,17.30
2009,07,30,05,25,17.30
2009,07,30,05,26,17.20
2009,07,30,05,27,17.20
2009,07,30,05,28,17.20
2009,07,30,05,29,17.30
2009,07,30,05,30,17.30
2009,07,30,05,31,17.30
2009,07,30,05,32,17.20
2009,07,30,05,33,17.30
2009,07,30,05,34,17.30
2009,07,30,05,35,17.30
2009,07,30,05,36,17.30
2009,07,30,05,37,17.30
2009,07,30,05,38,17.30
2009,07,30,05,39,17.30
2009,07,30,05,40,17.30
2009,07,30,05,41,17.30
2009,07,30,05,42,17.30
2009,07,30,05,43,17.30
2009,07,30,05,44,17.30
2009,07,30,05,45,17.30
2009,07,30,05,46,17.30
2009,07,30,05,47,17.30
2009,07,30,05,48,17.30
2009,07,30,05,49,17.30
2009,07,30,05,50,17.30
2009,07,30,05,51,17.30
2009,07,30,05,52,17.30
2009,07,30,05,53,17.30
2009,07,30,05,54,17.30
2009,07,30,05,55,17.20
2009,07,30,05,56,17.20
2009,07,30,05,57,17.20
2009,07,30,05,58,17.20
2009,07,30,05,59,17.20
2009,07,30,06,00,17.20
2009,07,30,06,01,17.20
2009,07,30,06,02,17.20
2009,07,30,06,03,17.20
2009,07,30,06,04,17.20
2009,07,30,06,05,17.20
2009,07,30,06,06,17.20
2009,07,30,06,07,17.20
2009,07,30,06,08,17.20
2009,07,30,06,09,17.20
2009,07,30,06,10,17.20
2009,07,30,06,11,17.20
2009,07,30,06,12,17.20
2009,07,30,06,13,17.20
2009,07,30,06,14,17.30
2009,07,30,06,15,17.30
2009,07,30,06,16,17.30
2009,07,30,06,17,17.30
2009,07,30,06,18,17.30
2009,07,30,06,19,17.30
2009,07,30,06,20,17.30
2009,07,30,06,21,17.30
2009,07,30,06,22,17.30
2009,07,30,06,23,17.30
2009,07,30,06,24,17.30
2009,07,30,06,25,17.30
2009,07,30,06,26,17.30
2009,07,30,06,27,17.30
2009,07,30,06,28,17.30
2009,07,30,06,29,17.30
2009,07,30,06,30,17.40
2009,07,30,06,31,17.40
2009,07,30,06,32,17.40
2009,07,30,06,33,17.40
2009,07,30,06,34,17.50
2009,07,30,06,35,17.50
2009,07,30,06,36,17.50
2009,07,30,06,37,17.60
2009,07,30,06,38,17.60
2009,07,30,06,39,17.60
2009,07,30,06,40,17.70
2009,07,30,06,41,17.70
2009,07,30,06,42,17.70
2009,07,30,06,43,17.80
2009,07,30,06,44,17.80
2009,07,30,06,45,17.80
2009,07,30,06,46,17.90
2009,07,30,06,47,17.90
2009,07,30,06,48,18.00
2009,07,30,06,49,18.00
2009,07,30,06,50,18.10
2009,07,30,06,51,18.10
2009,07,30,06,52,18.20
2009,07,30,06,53,18.20
2009,07,30,06,54,18.20
2009,07,30,06,55,18.30
2009,07,30,06,56,18.30
2009,07,30,06,57,18.30
2009,07,30,06,58,18.40
2009,07,30,06,59,18.40
2009,07,30,07,00,18.40
2009,07,30,07,01,18.50
2009,07,30,07,02,18.50
2009,07,30,07,03,18.60
2009,07,30,07,04,18.70
2009,07,30,07,05,18.70
2009,07,30,07,06,18.80
2009,07,30,07,07,18.80
2009,07,30,07,08,18.80
2009,07,30,07,09,18.90
2009,07,30,07,10,18.90
2009,07,30,07,11,19.00
2009,07,30,07,12,19.00
2009,07,30,07,13,19.10
2009,07,30,07,14,19.10
2009,07,30,07,15,19.10
2009,07,30,07,16,19.20
2009,07,30,07,17,19.20
2009,07,30,07,18,19.20
2009,07,30,07,19,19.30
2009,07,30,07,20,19.40
2009,07,30,07,21,19.50
2009,07,30,07,22,19.60
2009,07,30,07,23,19.70
2009,07,30,07,24,19.70
2009,07,30,07,25,19.80
2009,07,30,07,26,19.90
2009,07,30,07,27,20.00
2009,07,30,07,28,20.00
2009,07,30,07,29,20.10
2009,07,30,07,30,20.20
2009,07,30,07,31,20.20
2009,07,30,07,32,20.30
2009,07,30,07,33,20.30
2009,07,30,07,34,20.30
2009,07,30,07,35,20.30
2009,07,30,07,36,20.30
2009,07,30,07,37,20.30
2009,07,30,07,38,20.30
2009,07,30,07,39,20.20
2009,07,30,07,40,20.20
2009,07,30,07,41,20.20
2009,07,30,07,42,20.20
2009,07,30,07,43,20.20
2009,07,30,07,44,20.20
2009,07,30,07,45,20.20
2009,07,30,07,46,20.30
2009,07,30,07,47,20.30
2009,07,30,07,48,20.30
2009,07,30,07,49,20.20
2009,07,30,07,50,20.20
2009,07,30,07,51,20.20
2009,07,30,07,52,20.20
2009,07,30,07,53,20.20
2009,07,30,07,54,20.20
2009,07,30,07,55,20.10
2009,07,30,07,56,20.00
2009,07,30,07,57,20.00
2009,07,30,07,58,19.90
2009,07,30,07,59,19.90
2009,07,30,08,00,19.80
2009,07,30,08,01,19.80
2009,07,30,08,02,19.80
2009,07,30,08,03,19.80
2009,07,30,08,04,19.70
2009,07,30,08,05,19.70
2009,07,30,08,06,19.80
2009,07,30,08,07,19.80
2009,07,30,08,08,19.90
2009,07,30,08,09,19.90
2009,07,30,08,10,19.90
2009,07,30,08,11,19.90
2009,07,30,08,12,19.90
2009,07,30,08,13,19.90
2009,07,30,08,14,19.90
2009,07,30,08,15,19.90
2009,07,30,08,16,19.90
2009,07,30,08,17,19.90
2009,07,30,08,18,19.90
2009,07,30,08,19,20.00
2009,07,30,08,20,20.00
2009,07,30,08,21,20.10
2009,07,30,08,22,20.10
2009,07,30,08,23,20.10
2009,07,30,08,24,20.10
2009,07,30,08,25,20.10
2009,07,30,08,26,20.20
2009,07,30,08,27,20.20
2009,07,30,08,28,20.30
2009,07,30,08,29,20.40
2009,07,30,08,30,20.50
2009,07,30,08,31,20.60
2009,07,30,08,32,20.70
2009,07,30,08,33,20.70
2009,07,30,08,34,20.80
2009,07,30,08,35,20.80
2009,07,30,08,36,20.90
2009,07,30,08,37,20.90
2009,07,30,08,38,21.00
2009,07,30,08,39,21.00
2009,07,30,08,40,21.10
2009,07,30,08,41,21.10
2009,07,30,08,42,21.20
2009,07,30,08,43,21.20
2009,07,30,08,44,21.20
2009,07,30,08,45,21.30
2009,07,30,08,46,21.40
2009,07,30,08,47,21.50
2009,07,30,08,48,21.50
2009,07,30,08,49,21.60
2009,07,30,08,50,21.60
2009,07,30,08,51,21.70
2009,07,30,08,52,21.80
2009,07,30,08,53,21.80
2009,07,30,08,54,21.90
2009,07,30,08,55,22.00
2009,07,30,08,56,22.10
2009,07,30,08,57,22.10
2009,07,30,08,58,22.10
2009,07,30,08,59,22.10
2009,07,30,09,00,22.10
2009,07,30,09,01,22.20
2009,07,30,09,02,22.20
2009,07,30,09,03,22.20
2009,07,30,09,04,22.30
2009,07,30,09,05,22.40
2009,07,30,09,06,22.40
2009,07,30,09,07,22.50
2009,07,30,09,08,22.50
2009,07,30,09,09,22.60
2009,07,30,09,10,22.70
2009,07,30,09,11,22.70
2009,07,30,09,12,22.70
2009,07,30,09,13,22.80
2009,07,30,09,14,22.90
2009,07,30,09,15,23.00
2009,07,30,09,16,23.00
2009,07,30,09,17,23.00
2009,07,30,09,18,23.00
2009,07,30,09,19,23.10
2009,07,30,09,20,23.10
2009,07,30,09,21,23.20
2009,07,30,09,22,23.30
2009,07,30,09,23,23.30
2009,07,30,09,24,23.30
2009,07,30,09,25,23.40
2009,07,30,09,26,23.40
2009,07,30,09,27,23.50
2009,07,30,09,28,23.50
2009,07,30,09,29,23.50
2009,07,30,09,30,23.50
2009,07,30,09,31,23.50
2009,07,30,09,32,23.60
2009,07,30,09,33,23.60
2009,07,30,09,34,23.60
2009,07,30,09,35,23.70
2009,07,30,09,36,23.70
2009,07,30,09,37,23.60
2009,07,30,09,38,23.50
2009,07,30,09,39,23.40
2009,07,30,09,40,23.30
2009,07,30,09,41,23.20
2009,07,30,09,42,23.10
2009,07,30,09,43,23.00
2009,07,30,09,44,22.90
2009,07,30,09,45,22.80
2009,07,30,09,46,22.70
2009,07,30,09,47,22.60
2009,07,30,09,48,22.50
2009,07,30,09,49,22.50
2009,07,30,09,50,22.50
2009,07,30,09,51,22.60
2009,07,30,09,52,22.60
2009,07,30,09,53,22.60
2009,07,30,09,54,22.50
2009,07,30,09,55,22.40
2009,07,30,09,56,22.40
2009,07,30,09,57,22.40
2009,07,30,09,58,22.30
2009,07,30,09,59,22.30
2009,07,30,10,00,22.30
2009,07,30,10,01,22.30
2009,07,30,10,02,22.30
2009,07,30,10,03,22.30
2009,07,30,10,04,22.20
2009,07,30,10,05,22.10
2009,07,30,10,06,22.10
2009,07,30,10,07,22.10
2009,07,30,10,08,22.20
2009,07,30,10,09,22.10
2009,07,30,10,10,22.10
2009,07,30,10,11,22.00
2009,07,30,10,12,21.90
2009,07,30,10,13,21.80
2009,07,30,10,14,21.80
2009,07,30,10,15,21.70
2009,07,30,10,16,21.70
2009,07,30,10,17,21.70
2009,07,30,10,18,21.70
2009,07,30,10,19,21.70
2009,07,30,10,20,21.60
2009,07,30,10,21,21.60
2009,07,30,10,22,21.60
2009,07,30,10,23,21.50
2009,07,30,10,24,21.50
2009,07,30,10,25,21.50
2009,07,30,10,26,21.50
2009,07,30,10,27,21.40
2009,07,30,10,28,21.40
2009,07,30,10,29,21.40
2009,07,30,10,30,21.30
2009,07,30,10,31,21.30
2009,07,30,10,32,21.20
2009,07,30,10,33,21.20
2009,07,30,10,34,21.20
2009,07,30,10,35,21.20
2009,07,30,10,36,21.20
2009,07,30,10,37,21.20
2009,07,30,10,38,21.20
2009,07,30,10,39,21.20
2009,07,30,10,40,21.10
2009,07,30,10,41,21.10
2009,07,30,10,42,21.10
2009,07,30,10,43,21.00
2009,07,30,10,44,21.00
2009,07,30,10,45,21.00
2009,07,30,10,46,21.00
2009,07,30,10,47,21.00
2009,07,30,10,48,21.00
2009,07,30,10,49,21.10
2009,07,30,10,50,21.20
2009,07,30,10,51,21.30
2009,07,30,10,52,21.40
2009,07,30,10,53,21.50
2009,07,30,10,54,21.60
2009,07,30,10,55,21.70
2009,07,30,10,56,21.80
2009,07,30,10,57,21.80
2009,07,30,10,58,21.90
2009,07,30,10,59,22.00
2009,07,30,11,00,22.10
2009,07,30,11,01,22.10
2009,07,30,11,02,22.20
2009,07,30,11,03,22.30
2009,07,30,11,04,22.40
2009,07,30,11,05,22.50
2009,07,30,11,06,22.60
2009,07,30,11,07,22.70
2009,07,30,11,08,22.80
2009,07,30,11,09,22.90
2009,07,30,11,10,23.00
2009,07,30,11,11,23.00
2009,07,30,11,12,23.10
2009,07,30,11,13,23.20
2009,07,30,11,14,23.30
2009,07,30,11,15,23.30
2009,07,30,11,16,23.40
2009,07,30,11,17,23.40
2009,07,30,11,18,23.40
2009,07,30,11,19,23.50
2009,07,30,11,20,23.60
2009,07,30,11,21,23.70
2009,07,30,11,22,23.90
2009,07,30,11,23,24.00
2009,07,30,11,24,24.10
2009,07,30,11,25,24.20
2009,07,30,11,26,24.20
2009,07,30,11,27,24.30
2009,07,30,11,28,24.40
2009,07,30,11,29,24.50
2009,07,30,11,30,24.60
2009,07,30,11,31,24.80
2009,07,30,11,32,24.90
2009,07,30,11,33,24.90
2009,07,30,11,34,24.90
2009,07,30,11,35,24.90
2009,07,30,11,36,24.90
2009,07,30,11,37,24.80
2009,07,30,11,38,24.80
2009,07,30,11,39,24.70
2009,07,30,11,40,24.70
2009,07,30,11,41,24.70
2009,07,30,11,42,24.70
2009,07,30,11,43,24.80
2009,07,30,11,44,24.80
2009,07,30,11,45,24.80
2009,07,30,11,46,24.70
2009,07,30,11,47,24.70
2009,07,30,11,48,24.60
2009,07,30,11,49,24.70
2009,07,30,11,50,24.70
2009,07,30,11,51,24.70
2009,07,30,11,52,24.80
2009,07,30,11,53,24.80
2009,07,30,11,54,24.80
2009,07,30,11,55,24.80
2009,07,30,11,56,24.80
2009,07,30,11,57,24.90
2009,07,30,11,58,24.90
2009,07,30,11,59,25.00
2009,07,30,12,00,25.10
2009,07,30,12,01,25.10
2009,07,30,12,02,25.20
2009,07,30,12,03,25.20
2009,07,30,12,04,25.20
2009,07,30,12,05,25.20
2009,07,30,12,06,25.10
2009,07,30,12,07,25.00
2009,07,30,12,08,25.10
2009,07,30,12,09,25.10
2009,07,30,12,10,25.00
2009,07,30,12,11,25.00
2009,07,30,12,12,25.00
2009,07,30,12,13,25.10
2009,07,30,12,14,25.20
2009,07,30,12,15,25.30
2009,07,30,12,16,25.30
2009,07,30,12,17,25.20
2009,07,30,12,18,25.00
2009,07,30,12,19,24.90
2009,07,30,12,20,24.80
2009,07,30,12,21,24.80
2009,07,30,12,22,24.80
2009,07,30,12,23,24.80
2009,07,30,12,24,24.80
2009,07,30,12,25,24.80
2009,07,30,12,26,24.90
2009,07,30,12,27,25.00
2009,07,30,12,28,25.10
2009,07,30,12,29,25.30
2009,07,30,12,30,25.40
2009,07,30,12,31,25.50
2009,07,30,12,32,25.70
2009,07,30,12,33,25.80
2009,07,30,12,34,25.90
2009,07,30,12,35,26.00
2009,07,30,12,36,26.00
2009,07,30,12,37,26.10
2009,07,30,12,38,26.00
2009,07,30,12,39,26.00
2009,07,30,12,40,26.00
2009,07,30,12,41,26.00
2009,07,30,12,42,26.10
2009,07,30,12,43,26.10
2009,07,30,12,44,26.20
2009,07,30,12,45,26.30
2009,07,30,12,46,26.30
2009,07,30,12,47,26.20
2009,07,30,12,48,26.20
2009,07,30,12,49,26.10
2009,07,30,12,50,26.10
2009,07,30,12,51,26.20
2009,07,30,12,52,26.30
2009,07,30,12,53,26.40
2009,07,30,12,54,26.50
2009,07,30,12,55,26.60
2009,07,30,12,56,26.70
2009,07,30,12,57,26.80
2009,07,30,12,58,26.80
2009,07,30,12,59,26.70
2009,07,30,13,00,26.70
2009,07,30,13,01,26.60
2009,07,30,13,02,26.70
2009,07,30,13,03,26.70
2009,07,30,13,04,26.90
2009,07,30,13,05,27.00
2009,07,30,13,06,27.10
2009,07,30,13,07,27.20
2009,07,30,13,08,27.30
2009,07,30,13,09,27.40
2009,07,30,13,10,27.40
2009,07,30,13,11,27.30
2009,07,30,13,12,27.30
2009,07,30,13,13,27.30
2009,07,30,13,14,27.30
2009,07,30,13,15,27.30
2009,07,30,13,16,27.30
2009,07,30,13,17,27.30
2009,07,30,13,18,27.40
2009,07,30,13,19,27.40
2009,07,30,13,20,27.40
2009,07,30,13,21,27.50
2009,07,30,13,22,27.50
2009,07,30,13,23,27.60
2009,07,30,13,24,27.60
2009,07,30,13,25,27.70
2009,07,30,13,26,27.70
2009,07,30,13,27,27.80
2009,07,30,13,28,27.80
2009,07,30,13,29,27.80
2009,07,30,13,30,27.90
2009,07,30,13,31,28.00
2009,07,30,13,32,28.20
2009,07,30,13,33,28.30
2009,07,30,13,34,28.40
2009,07,30,13,35,28.40
2009,07,30,13,36,28.50
2009,07,30,13,37,28.50
2009,07,30,13,38,28.50
2009,07,30,13,39,28.40
2009,07,30,13,40,28.40
2009,07,30,13,41,28.40
2009,07,30,13,42,28.50
2009,07,30,13,43,28.60
2009,07,30,13,44,28.80
2009,07,30,13,45,28.90
2009,07,30,13,46,29.00
2009,07,30,13,47,29.10
2009,07,30,13,48,29.10
2009,07,30,13,49,29.00
2009,07,30,13,50,28.90
2009,07,30,13,51,28.80
2009,07,30,13,52,28.80
2009,07,30,13,53,28.80
2009,07,30,13,54,28.80
2009,07,30,13,55,28.80
2009,07,30,13,56,28.80
2009,07,30,13,57,28.80
2009,07,30,13,58,28.90
2009,07,30,13,59,28.90
2009,07,30,14,00,28.90
2009,07,30,14,01,28.80
2009,07,30,14,02,28.80
2009,07,30,14,03,28.80
2009,07,30,14,04,28.80
2009,07,30,14,05,28.80
2009,07,30,14,06,28.80
2009,07,30,14,07,28.80
2009,07,30,14,08,28.80
2009,07,30,14,09,28.80
2009,07,30,14,10,28.90
2009,07,30,14,11,28.90
2009,07,30,14,12,28.80
2009,07,30,14,13,28.80
2009,07,30,14,14,28.80
2009,07,30,14,15,28.90
2009,07,30,14,16,29.00
2009,07,30,14,17,29.10
2009,07,30,14,18,29.20
2009,07,30,14,19,29.20
2009,07,30,14,20,29.20
2009,07,30,14,21,29.20
2009,07,30,14,22,29.20
2009,07,30,14,23,29.20
2009,07,30,14,24,29.20
2009,07,30,14,25,29.10
2009,07,30,14,26,29.10
2009,07,30,14,27,29.10
2009,07,30,14,28,29.10
2009,07,30,14,29,29.10
2009,07,30,14,30,29.20
2009,07,30,14,31,29.30
2009,07,30,14,32,29.30
2009,07,30,14,33,29.40
2009,07,30,14,34,29.40
2009,07,30,14,35,29.40
2009,07,30,14,36,29.30
2009,07,30,14,37,29.30
2009,07,30,14,38,29.30
2009,07,30,14,39,29.40
2009,07,30,14,40,29.40
2009,07,30,14,41,29.50
2009,07,30,14,42,29.60
2009,07,30,14,43,29.60
2009,07,30,14,44,29.70
2009,07,30,14,45,29.70
2009,07,30,14,46,29.60
2009,07,30,14,47,29.70
2009,07,30,14,48,29.70
2009,07,30,14,49,29.70
2009,07,30,14,50,29.70
2009,07,30,14,51,29.80
2009,07,30,14,52,29.80
2009,07,30,14,53,29.90
2009,07,30,14,54,29.90
2009,07,30,14,55,30.00
2009,07,30,14,56,30.00
2009,07,30,14,57,29.90
2009,07,30,14,58,29.90
2009,07,30,14,59,29.90
2009,07,30,15,00,30.00
2009,07,30,15,01,30.00
2009,07,30,15,02,29.90
2009,07,30,15,03,29.80
2009,07,30,15,04,29.80
2009,07,30,15,05,29.80
2009,07,30,15,06,29.90
2009,07,30,15,07,29.90
2009,07,30,15,08,30.00
2009,07,30,15,09,29.90
2009,07,30,15,10,29.80
2009,07,30,15,11,29.70
2009,07,30,15,12,29.60
2009,07,30,15,13,29.50
2009,07,30,15,14,29.60
2009,07,30,15,15,29.60
2009,07,30,15,16,29.70
2009,07,30,15,17,29.70
2009,07,30,15,18,29.80
2009,07,30,15,19,29.80
2009,07,30,15,20,29.80
2009,07,30,15,21,29.80
2009,07,30,15,22,29.70
2009,07,30,15,23,29.70
2009,07,30,15,24,29.60
2009,07,30,15,25,29.50
2009,07,30,15,26,29.30
2009,07,30,15,27,29.30
2009,07,30,15,28,29.20
2009,07,30,15,29,29.20
2009,07,30,15,30,29.10
2009,07,30,15,31,29.10
2009,07,30,15,32,29.10
2009,07,30,15,33,29.10
2009,07,30,15,34,29.10
2009,07,30,15,35,29.10
2009,07,30,15,36,29.20
2009,07,30,15,37,29.20
2009,07,30,15,38,29.20
2009,07,30,15,39,29.20
2009,07,30,15,40,29.30
2009,07,30,15,41,29.30
2009,07,30,15,42,29.30
2009,07,30,15,43,29.30
2009,07,30,15,44,29.40
2009,07,30,15,45,29.40
2009,07,30,15,46,29.40
2009,07,30,15,47,29.50
2009,07,30,15,48,29.50
2009,07,30,15,49,29.60
2009,07,30,15,50,29.60
2009,07,30,15,51,29.80
2009,07,30,15,52,29.90
2009,07,30,15,53,30.00
2009,07,30,15,54,30.20
2009,07,30,15,55,30.20
2009,07,30,15,56,30.30
2009,07,30,15,57,30.30
2009,07,30,15,58,30.30
2009,07,30,15,59,30.30
2009,07,30,16,00,30.30
2009,07,30,16,01,30.40
2009,07,30,16,02,30.40
2009,07,30,16,03,30.40
2009,07,30,16,04,30.40
2009,07,30,16,05,30.30
2009,07,30,16,06,30.20
2009,07,30,16,07,30.00
2009,07,30,16,08,29.90
2009,07,30,16,09,29.60
2009,07,30,16,10,29.40
2009,07,30,16,11,29.10
2009,07,30,16,12,28.90
2009,07,30,16,13,28.70
2009,07,30,16,14,28.60
2009,07,30,16,15,28.50
2009,07,30,16,16,28.40
2009,07,30,16,17,28.20
2009,07,30,16,18,28.00
2009,07,30,16,19,27.90
2009,07,30,16,20,27.80
2009,07,30,16,21,27.80
2009,07,30,16,22,27.70
2009,07,30,16,23,27.50
2009,07,30,16,24,27.30
2009,07,30,16,25,27.10
2009,07,30,16,26,27.10
2009,07,30,16,27,27.00
2009,07,30,16,28,27.10
2009,07,30,16,29,27.10
2009,07,30,16,30,27.10
2009,07,30,16,31,27.10
2009,07,30,16,32,27.00
2009,07,30,16,33,26.80
2009,07,30,16,34,26.70
2009,07,30,16,35,26.60
2009,07,30,16,36,26.50
2009,07,30,16,37,26.50
2009,07,30,16,38,26.50
2009,07,30,16,39,26.50
2009,07,30,16,40,26.60
2009,07,30,16,41,26.70
2009,07,30,16,42,26.70
2009,07,30,16,43,26.70
2009,07,30,16,44,26.60
2009,07,30,16,45,26.50
2009,07,30,16,46,26.40
2009,07,30,16,47,26.20
2009,07,30,16,48,26.10
2009,07,30,16,49,26.00
2009,07,30,16,50,26.00
2009,07,30,16,51,25.90
2009,07,30,16,52,25.90
2009,07,30,16,53,25.90
2009,07,30,16,54,25.90
2009,07,30,16,55,25.90
2009,07,30,16,56,25.90
2009,07,30,16,57,25.90
2009,07,30,16,58,26.00
2009,07,30,16,59,26.10
2009,07,30,17,00,26.20
2009,07,30,17,01,26.40
2009,07,30,17,02,26.50
2009,07,30,17,03,26.70
2009,07,30,17,04,26.80
2009,07,30,17,05,26.80
2009,07,30,17,06,26.80
2009,07,30,17,07,26.80
2009,07,30,17,08,26.80
2009,07,30,17,09,26.70
2009,07,30,17,10,26.70
2009,07,30,17,11,26.50
2009,07,30,17,12,26.40
2009,07,30,17,13,26.40
2009,07,30,17,14,26.30
2009,07,30,17,15,26.30
2009,07,30,17,16,26.30
2009,07,30,17,17,26.30
2009,07,30,17,18,26.30
2009,07,30,17,19,26.40
2009,07,30,17,20,26.40